START_TIME,STEP,MOV.,M15,t_acc.,M20,t_acc.
1979-07-14 21:00:44.160 ,0,0,0.,24.0,0.,24.0
1979-07-14 21:01:08.160 ,0,1,0.,24.0,0.,24.0
1979-07-14 21:01:32.160 ,0,0,0.,24.0,0.,24.0
1979-07-14 21:01:56.160 ,1,1,0.,24.0,0.,24.0
1979-07-14 21:02:20.160 ,1,0,0.,24.0,0.,24.0
1979-07-14 21:02:44.160 ,2,1,0.,24.0,0.,24.0
1979-07-14 21:03:08.160 ,2,0,0.,24.0,0.,24.0
1979-07-14 21:03:32.160 ,3,1,0.,24.0,0.,24.0
1979-07-14 21:03:56.160 ,3,0,0.,24.0,0.,24.0
1979-07-14 21:04:20.160 ,4,1,0.,24.0,0.,24.0
1979-07-14 21:04:44.160 ,4,0,0.,24.0,0.,24.0
1979-07-14 21:05:08.160 ,5,1,0.,24.0,0.,24.0
1979-07-14 21:05:32.160 ,5,0,0.,24.0,0.,24.0
1979-07-14 21:05:56.160 ,6,1,0.,24.0,0.,24.0
1979-07-14 21:06:20.160 ,6,0,0.,24.0,0.,24.0
1979-07-14 21:06:44.160 ,7,0,0.,24.0,0.,24.0
1979-07-14 21:07:08.160 ,7,0,0.,24.0,0.,24.0
1979-07-14 21:07:32.160 ,3,1,0.,24.0,0.,24.0
1979-07-14 21:07:56.160 ,0,1,0.,24.0,0.,24.0
1979-07-14 21:08:20.160 ,4,1,0.,24.0,0.,24.0
1979-07-14 21:08:44.160 ,7,1,0.,24.0,0.,24.0
1979-07-14 21:09:08.160 ,3,1,0.,24.0,0.,24.0
1979-07-14 21:09:32.160 ,0,1,0.,24.0,0.,24.0
1979-07-14 21:09:56.160 ,4,1,0.,24.0,0.,24.0
1979-07-14 21:10:20.160 ,7,1,0.,24.0,0.,24.0
1979-07-14 21:10:44.160 ,3,1,0.,24.0,0.,24.0
1979-07-14 21:11:08.160 ,0,1,0.,24.0,0.,24.0
1979-07-14 21:11:32.160 ,4,1,0.,24.0,0.,24.0
1979-07-14 21:11:56.160 ,7,1,0.,24.0,0.,24.0
1979-07-14 21:12:20.160 ,3,1,0.,24.0,0.,24.0
1979-07-14 21:12:44.160 ,0,1,0.,24.0,0.,24.0
1979-07-14 21:13:56.160 ,0,0,0.,24.0,0.,24.0
1979-07-14 21:14:20.160 ,0,1,0.,24.0,0.,24.0
1979-07-14 21:14:44.160 ,4,1,0.,24.0,0.,24.0
1979-07-14 21:15:08.160 ,7,1,0.,24.0,0.,24.0
1979-07-14 21:15:32.160 ,3,1,0.,24.0,0.,24.0
1979-07-14 21:15:56.160 ,0,1,0.,24.0,0.,24.0
1979-07-14 21:16:20.160 ,4,1,0.,24.0,0.,24.0
1979-07-14 21:16:44.160 ,7,1,0.,24.0,0.,24.0
1979-07-14 21:17:08.160 ,3,1,0.,24.0,0.,24.0
1979-07-14 21:17:32.160 ,0,1,0.,24.0,0.,24.0
1979-07-14 21:17:56.160 ,0,0,0.,24.0,0.,24.0
1979-07-14 21:18:20.160 ,0,0,0.,24.0,0.,24.0
1979-07-14 21:18:44.160 ,5,1,0.,24.0,0.,24.0
1979-07-14 21:19:08.160 ,5,0,0.,24.0,0.,24.0
1979-07-14 21:19:32.160 ,4,1,0.,24.0,0.,24.0
1979-07-14 21:19:56.160 ,4,0,0.,24.0,0.,24.0
1979-07-14 21:20:20.160 ,3,1,0.,24.0,0.,24.0
1979-07-14 21:20:44.160 ,3,0,0.,24.0,0.,24.0
1979-07-14 21:21:08.160 ,2,1,0.,24.0,0.,24.0
1979-07-14 21:21:32.160 ,2,0,0.,24.0,0.,24.0
1979-07-14 21:21:56.160 ,1,1,0.,24.0,0.,24.0
1979-07-14 21:22:20.160 ,1,0,0.,24.0,0.,24.0
1979-07-14 21:22:44.160 ,0,1,0.,24.0,0.,24.0
1979-07-14 21:23:08.160 ,0,0,0.,24.0,0.,24.0
1979-07-14 21:23:32.160 ,0,1,0.,24.0,0.,24.0
1979-07-14 21:23:56.160 ,0,0,0.,24.0,0.,24.0
1979-07-14 21:24:20.160 ,1,1,0.,24.0,0.,24.0
1979-07-14 21:24:44.160 ,1,0,0.,24.0,0.,24.0
1979-07-14 21:25:08.160 ,2,1,0.,24.0,0.,24.0
1979-07-14 21:25:32.160 ,2,0,0.,24.0,0.,24.0
1979-07-14 21:25:56.160 ,3,1,0.,24.0,0.,24.0
1979-07-14 21:26:20.160 ,3,0,0.,24.0,0.,24.0
1979-07-14 21:26:44.160 ,4,1,0.,24.0,0.,24.0
1979-07-14 21:27:08.160 ,4,0,0.,24.0,0.,24.0
1979-07-14 21:27:32.160 ,5,1,0.,24.0,0.,24.0
1979-07-14 21:27:56.160 ,5,0,0.,24.0,0.,24.0
1979-07-14 21:28:20.160 ,6,1,0.,24.0,0.,24.0
1979-07-14 21:28:44.160 ,6,0,0.,24.0,0.,24.0
1979-07-14 21:29:08.160 ,7,1,0.,24.0,0.,24.0
1979-07-14 21:29:32.160 ,7,0,0.,24.0,0.,24.0
1979-07-14 21:29:56.160 ,7,1,0.,24.0,0.,24.0
1979-07-14 21:30:20.160 ,7,0,0.,24.0,0.,24.0
1979-07-14 21:31:32.160 ,0,0,0.,24.0,0.,24.0
1979-07-14 21:31:56.160 ,0,0,0.,24.0,0.,24.0
1979-07-14 21:32:20.160 ,4,1,0.,24.0,0.,24.0
1979-07-14 21:32:44.160 ,4,0,0.,24.0,0.,24.0
1979-07-14 21:33:08.160 ,3,1,0.,24.0,0.,24.0
1979-07-14 21:33:32.160 ,3,0,0.,24.0,0.,24.0
1979-07-14 21:33:56.160 ,2,1,0.,24.0,0.,24.0
1979-07-14 21:34:20.160 ,2,0,0.,24.0,0.,24.0
1979-07-14 21:34:44.150 ,1,1,0.,24.0,0.,24.0
1979-07-14 21:35:08.150 ,1,0,0.,24.0,0.,24.0
1979-07-14 21:35:32.150 ,0,1,0.,24.0,0.,24.0
1979-07-14 21:35:56.150 ,0,0,0.,24.0,0.,24.0
1979-07-14 21:36:20.150 ,0,1,0.,24.0,0.,24.0
1979-07-14 21:36:44.150 ,0,0,0.,24.0,0.,24.0
1979-07-14 21:37:08.150 ,1,1,0.,24.0,0.,24.0
1979-07-14 21:37:32.150 ,1,0,0.,24.0,0.,24.0
1979-07-14 21:37:56.150 ,2,1,0.,24.0,0.,24.0
1979-07-14 21:38:20.150 ,2,0,0.,24.0,0.,24.0
1979-07-14 21:38:44.150 ,3,1,0.,24.0,0.,24.0
1979-07-14 21:39:08.150 ,3,0,0.,24.0,0.,24.0
1979-07-14 21:39:32.150 ,4,1,0.,24.0,0.,24.0
1979-07-14 21:39:56.150 ,4,0,0.,24.0,0.,24.0
1979-07-14 21:40:20.150 ,5,1,0.,24.0,0.,24.0
1979-07-14 21:40:44.150 ,5,0,0.,24.0,0.,24.0
1979-07-14 21:41:08.150 ,6,1,0.,24.0,0.,24.0
1979-07-14 21:41:32.150 ,6,0,0.,24.0,0.,24.0
1979-07-14 21:41:56.150 ,7,1,0.,24.0,0.,24.0
1979-07-14 21:42:20.150 ,7,0,0.,24.0,0.,24.0
1979-07-14 21:42:44.150 ,7,1,0.,24.0,0.,24.0
1979-07-14 21:43:08.150 ,7,0,0.,24.0,0.,24.0
1979-07-14 21:43:32.150 ,6,1,0.,24.0,0.,24.0
1979-07-14 21:43:56.150 ,6,0,0.,24.0,0.,24.0
1979-07-14 21:44:20.150 ,5,1,0.,24.0,0.,24.0
1979-07-14 21:44:44.150 ,5,0,0.,24.0,0.,24.0
1979-07-14 21:45:08.150 ,4,1,0.,24.0,0.,24.0
1979-07-14 21:45:32.150 ,4,0,0.,24.0,0.,24.0
1979-07-14 21:45:56.150 ,3,1,0.,24.0,0.,24.0
1979-07-14 21:46:20.150 ,3,0,0.,24.0,0.,24.0
1979-07-14 21:46:44.150 ,2,1,0.,24.0,0.,24.0
1979-07-14 21:47:08.150 ,2,0,0.,24.0,0.,24.0
1979-07-14 21:47:32.150 ,1,1,0.,24.0,0.,24.0
1979-07-14 21:47:56.150 ,1,0,0.,24.0,0.,24.0
1979-07-14 21:48:20.150 ,0,1,0.,24.0,0.,24.0
1979-07-14 21:48:44.150 ,0,0,0.,24.0,0.,24.0
1979-07-14 21:49:08.150 ,0,1,0.,24.0,0.,24.0
1979-07-14 21:49:32.150 ,0,0,0.,24.0,0.,24.0
1979-07-14 21:49:56.150 ,1,1,0.,24.0,0.,24.0
1979-07-14 21:50:20.150 ,1,0,0.,24.0,0.,24.0
1979-07-14 21:50:44.150 ,2,1,0.,24.0,0.,24.0
1979-07-14 21:51:08.150 ,2,0,0.,24.0,0.,24.0
1979-07-14 21:51:32.150 ,3,1,0.,24.0,0.,24.0
1979-07-14 21:51:56.150 ,3,0,0.,24.0,0.,24.0
1979-07-14 21:52:20.150 ,4,1,0.,24.0,0.,24.0
1979-07-14 21:52:44.150 ,4,0,0.,24.0,0.,24.0
1979-07-14 21:53:08.150 ,5,1,0.,24.0,0.,24.0
1979-07-14 21:53:32.150 ,5,0,0.,24.0,0.,24.0
1979-07-14 21:53:56.150 ,6,1,0.,24.0,0.,24.0
1979-07-14 21:54:20.150 ,6,0,0.,24.0,0.,24.0
1979-07-14 21:54:44.150 ,7,1,0.,24.0,0.,24.0
1979-07-14 21:55:08.150 ,7,0,0.,24.0,0.,24.0
1979-07-14 21:55:32.150 ,7,1,0.,24.0,0.,24.0
1979-07-14 21:55:56.150 ,7,0,0.,24.0,0.,24.0
1979-07-14 21:56:20.150 ,6,1,0.,24.0,0.,24.0
1979-07-14 21:56:44.150 ,6,0,0.,24.0,0.,24.0
1979-07-14 21:57:08.150 ,5,1,0.,24.0,0.,24.0
1979-07-14 21:57:32.150 ,5,0,0.,24.0,0.,24.0
1979-07-14 21:57:56.150 ,4,1,0.,24.0,0.,24.0
1979-07-14 21:58:20.150 ,4,0,0.,24.0,0.,24.0
1979-07-14 21:58:44.150 ,3,1,0.,24.0,0.,24.0
1979-07-14 21:59:08.150 ,3,0,0.,24.0,0.,24.0
1979-07-14 21:59:32.150 ,2,1,0.,24.0,0.,24.0
1979-07-14 21:59:56.150 ,2,0,0.,24.0,0.,24.0
1979-07-14 22:00:20.150 ,1,1,0.,24.0,0.,24.0
1979-07-14 22:00:44.150 ,1,0,0.,24.0,0.,24.0
1979-07-14 22:01:08.150 ,0,1,0.,24.0,0.,24.0
1979-07-14 22:01:32.150 ,0,0,0.,24.0,0.,24.0
1979-07-14 22:01:56.150 ,0,1,0.,24.0,0.,24.0
1979-07-14 22:02:20.150 ,0,0,0.,24.0,0.,24.0
1979-07-14 22:02:44.150 ,1,1,0.,24.0,0.,24.0
1979-07-14 22:03:08.150 ,1,0,0.,24.0,0.,24.0
1979-07-14 22:03:32.150 ,2,1,0.,24.0,0.,24.0
1979-07-14 22:03:56.150 ,2,0,0.,24.0,0.,24.0
1979-07-14 22:04:20.150 ,3,1,0.,24.0,0.,24.0
1979-07-14 22:04:44.150 ,3,0,0.,24.0,0.,24.0
1979-07-14 22:05:08.150 ,4,1,0.,24.0,0.,24.0
1979-07-14 22:05:32.150 ,4,0,0.,24.0,0.,24.0
1979-07-14 22:05:56.150 ,5,1,0.,24.0,0.,24.0
1979-07-14 22:06:20.150 ,5,0,0.,24.0,0.,24.0
1979-07-14 22:06:44.150 ,6,1,0.,24.0,0.,24.0
1979-07-14 22:07:08.150 ,6,0,0.,24.0,0.,24.0
1979-07-14 22:07:32.150 ,7,1,0.,24.0,0.,24.0
1979-07-14 22:07:56.150 ,7,0,0.,24.0,0.,24.0
1979-07-14 22:08:20.150 ,7,1,0.,24.0,0.,24.0
1979-07-14 22:08:44.150 ,7,0,0.,24.0,0.,24.0
1979-07-14 22:09:08.150 ,6,1,0.,24.0,0.,24.0
1979-07-14 22:09:32.150 ,6,0,0.,24.0,0.,24.0
1979-07-14 22:09:56.150 ,5,1,0.,24.0,0.,24.0
1979-07-14 22:10:20.150 ,5,0,0.,24.0,0.,24.0
1979-07-14 22:10:44.150 ,4,1,0.,24.0,0.,24.0
1979-07-14 22:11:08.150 ,4,0,0.,24.0,0.,24.0
1979-07-14 22:11:32.150 ,3,1,0.,24.0,0.,24.0
1979-07-14 22:11:56.150 ,3,0,0.,24.0,0.,24.0
1979-07-14 22:12:20.150 ,2,1,0.,24.0,0.,24.0
1979-07-14 22:12:44.150 ,2,0,0.,24.0,0.,24.0
1979-07-14 22:13:08.150 ,1,1,0.,24.0,0.,24.0
1979-07-14 22:13:32.150 ,1,0,0.,24.0,0.,24.0
1979-07-14 22:13:56.150 ,0,1,0.,24.0,0.,24.0
1979-07-14 22:14:20.150 ,0,0,0.,24.0,0.,24.0
1979-07-14 22:14:44.150 ,0,1,0.,24.0,0.,24.0
1979-07-14 22:15:08.150 ,0,0,0.,24.0,0.,24.0
1979-07-14 22:15:32.150 ,1,1,0.,24.0,0.,24.0
1979-07-14 22:15:56.150 ,1,0,0.,24.0,0.,24.0
1979-07-14 22:16:20.150 ,2,1,0.,24.0,0.,24.0
1979-07-14 22:16:44.150 ,2,0,0.,24.0,0.,24.0
1979-07-14 22:17:08.150 ,3,1,0.,24.0,0.,24.0
1979-07-14 22:17:32.150 ,3,0,0.,24.0,0.,24.0
1979-07-14 22:17:56.150 ,4,1,0.,24.0,0.,24.0
1979-07-14 22:18:20.150 ,4,0,0.,24.0,0.,24.0
1979-07-14 22:19:32.150 ,0,0,0.,24.0,0.,24.0
1979-07-14 22:19:56.150 ,0,0,0.,24.0,0.,24.0
1979-07-14 22:20:20.150 ,7,1,0.,24.0,0.,24.0
1979-07-14 22:20:44.150 ,7,0,0.,24.0,0.,24.0
1979-07-14 22:21:08.150 ,7,1,0.,24.0,0.,24.0
1979-07-14 22:21:32.150 ,7,0,0.,24.0,0.,24.0
1979-07-14 22:21:56.150 ,6,1,0.,24.0,0.,24.0
1979-07-14 22:22:20.150 ,6,0,0.,24.0,0.,24.0
1979-07-14 22:22:44.150 ,5,1,0.,24.0,0.,24.0
1979-07-14 22:23:08.150 ,5,0,0.,24.0,0.,24.0
1979-07-14 22:23:32.150 ,4,1,0.,24.0,0.,24.0
1979-07-14 22:23:56.150 ,4,0,0.,24.0,0.,24.0
1979-07-14 22:24:20.150 ,3,1,0.,24.0,0.,24.0
1979-07-14 22:24:44.150 ,3,0,0.,24.0,0.,24.0
1979-07-14 22:25:08.150 ,2,1,0.,24.0,0.,24.0
1979-07-14 22:25:32.150 ,2,0,0.,24.0,0.,24.0
1979-07-14 22:25:56.150 ,1,1,0.,24.0,0.,24.0
1979-07-14 22:26:20.150 ,1,0,0.,24.0,0.,24.0
1979-07-14 22:26:44.150 ,0,1,0.,24.0,0.,24.0
1979-07-14 22:27:08.150 ,0,0,0.,24.0,0.,24.0
1979-07-14 22:27:32.150 ,0,1,0.,24.0,0.,24.0
1979-07-14 22:27:56.150 ,0,0,0.,24.0,0.,24.0
1979-07-14 22:28:20.150 ,1,1,0.,24.0,0.,24.0
1979-07-14 22:28:44.150 ,1,0,0.,24.0,0.,24.0
1979-07-14 22:29:08.150 ,2,1,0.,24.0,0.,24.0
1979-07-14 22:30:44.150 ,0,0,0.,24.0,0.,24.0
1979-07-14 22:31:08.150 ,0,0,0.,24.0,0.,24.0
1979-07-14 22:31:08.150 ,0,0,0.,24.0,0.,24.0
1979-07-14 23:01:32.150 ,0,0,0.,24.0,0.,24.0
1979-07-14 23:01:56.150 ,0,1,0.,24.0,0.,24.0
1979-07-14 23:02:20.150 ,0,0,0.,24.0,0.,24.0
1979-07-14 23:02:44.150 ,0,1,0.,24.0,0.,24.0
1979-07-14 23:03:08.150 ,0,0,0.,24.0,0.,24.0
1979-07-14 23:03:32.150 ,1,1,0.,24.0,0.,24.0
1979-07-14 23:03:56.150 ,1,0,0.,24.0,0.,24.0
1979-07-14 23:04:20.150 ,2,1,0.,24.0,0.,24.0
1979-07-14 23:04:44.150 ,2,0,0.,24.0,0.,24.0
1979-07-14 23:05:08.150 ,3,1,0.,24.0,0.,24.0
1979-07-14 23:05:32.150 ,3,0,0.,24.0,0.,24.0
1979-07-14 23:05:56.150 ,4,1,0.,24.0,0.,24.0
1979-07-14 23:06:20.150 ,4,0,0.,24.0,0.,24.0
1979-07-14 23:07:32.150 ,0,0,0.,24.0,0.,24.0
1979-07-14 23:07:56.150 ,0,0,0.,24.0,0.,24.0
1979-07-14 23:10:44.150 ,0,0,0.,24.0,0.,24.0
1979-07-14 23:11:08.150 ,0,0,0.,24.0,0.,24.0
1979-07-14 23:11:32.150 ,4,1,0.,24.0,0.,24.0
1979-07-14 23:11:56.150 ,4,0,0.,24.0,0.,24.0
1979-07-14 23:12:20.150 ,3,1,0.,24.0,0.,24.0
1979-07-14 23:12:44.150 ,3,0,0.,24.0,0.,24.0
1979-07-14 23:13:08.150 ,2,1,0.,24.0,0.,24.0
1979-07-14 23:13:32.150 ,2,0,0.,24.0,0.,24.0
1979-07-14 23:13:56.150 ,1,1,0.,24.0,0.,24.0
1979-07-14 23:14:20.150 ,1,0,0.,24.0,0.,24.0
1979-07-14 23:14:44.150 ,0,1,0.,24.0,0.,24.0
1979-07-14 23:15:08.150 ,0,0,0.,24.0,0.,24.0
1979-07-14 23:15:32.150 ,0,1,0.,24.0,0.,24.0
1979-07-14 23:15:56.150 ,0,0,0.,24.0,0.,24.0
1979-07-14 23:16:20.150 ,1,1,0.,24.0,0.,24.0
1979-07-14 23:16:44.150 ,1,0,0.,24.0,0.,24.0
1979-07-14 23:17:08.150 ,2,1,0.,24.0,0.,24.0
1979-07-14 23:17:32.150 ,2,0,0.,24.0,0.,24.0
1979-07-14 23:17:56.150 ,3,1,0.,24.0,0.,24.0
1979-07-14 23:18:20.150 ,3,0,0.,24.0,0.,24.0
1979-07-14 23:18:44.150 ,4,1,0.,24.0,0.,24.0
1979-07-14 23:19:08.150 ,4,0,0.,24.0,0.,24.0
1979-07-14 23:19:32.150 ,5,1,0.,24.0,0.,24.0
1979-07-14 23:19:56.150 ,5,0,0.,24.0,0.,24.0
1979-07-14 23:20:20.150 ,6,1,0.,24.0,0.,24.0
1979-07-14 23:20:44.150 ,6,0,0.,24.0,0.,24.0
1979-07-14 23:21:08.150 ,7,1,0.,24.0,0.,24.0
1979-07-14 23:21:32.150 ,7,0,0.,24.0,0.,24.0
1979-07-14 23:21:56.150 ,7,1,0.,24.0,0.,24.0
1979-07-14 23:22:20.150 ,7,0,0.,24.0,0.,24.0
1979-07-14 23:22:44.150 ,6,1,0.,24.0,0.,24.0
1979-07-14 23:23:08.150 ,6,0,0.,24.0,0.,24.0
1979-07-14 23:23:32.150 ,5,1,0.,24.0,0.,24.0
1979-07-14 23:23:56.150 ,5,0,0.,24.0,0.,24.0
1979-07-14 23:24:20.150 ,4,1,0.,24.0,0.,24.0
1979-07-14 23:24:44.150 ,4,0,0.,24.0,0.,24.0
1979-07-14 23:25:08.150 ,3,1,0.,24.0,0.,24.0
1979-07-14 23:25:32.150 ,3,0,0.,24.0,0.,24.0
1979-07-14 23:25:56.150 ,2,1,0.,24.0,0.,24.0
1979-07-14 23:26:20.150 ,2,0,0.,24.0,0.,24.0
1979-07-14 23:26:44.150 ,1,1,0.,24.0,0.,24.0
1979-07-14 23:27:08.150 ,1,0,0.,24.0,0.,24.0
1979-07-14 23:27:32.150 ,0,1,0.,24.0,0.,24.0
1979-07-14 23:27:56.150 ,0,0,0.,24.0,0.,24.0
1979-07-14 23:28:20.150 ,0,1,0.,24.0,0.,24.0
1979-07-14 23:28:44.150 ,0,0,0.,24.0,0.,24.0
1979-07-14 23:29:08.150 ,1,1,0.,24.0,0.,24.0
1979-07-14 23:29:32.150 ,1,0,0.,24.0,0.,24.0
1979-07-14 23:29:56.150 ,2,1,0.,24.0,0.,24.0
1979-07-14 23:30:20.150 ,2,0,0.,24.0,0.,24.0
1979-07-14 23:30:44.150 ,3,1,0.,24.0,0.,24.0
1979-07-14 23:31:08.150 ,3,0,0.,24.0,0.,24.0
1979-07-14 23:31:32.150 ,4,1,0.,24.0,0.,24.0
1979-07-14 23:31:56.150 ,4,0,0.,24.0,0.,24.0
1979-07-14 23:32:20.150 ,5,1,0.,24.0,0.,24.0
1979-07-14 23:32:44.150 ,5,0,0.,24.0,0.,24.0
1979-07-14 23:33:08.150 ,6,1,0.,24.0,0.,24.0
1979-07-14 23:33:32.150 ,6,0,0.,24.0,0.,24.0
1979-07-14 23:33:56.150 ,7,1,0.,24.0,0.,24.0
1979-07-14 23:34:20.150 ,7,0,0.,24.0,0.,24.0
1979-07-14 23:34:44.150 ,7,1,0.,24.0,0.,24.0
1979-07-14 23:35:08.150 ,7,0,0.,24.0,0.,24.0
1979-07-14 23:35:32.150 ,6,1,0.,24.0,0.,24.0
1979-07-14 23:35:56.150 ,6,0,0.,24.0,0.,24.0
1979-07-14 23:36:20.150 ,5,1,0.,24.0,0.,24.0
1979-07-14 23:36:44.150 ,5,0,0.,24.0,0.,24.0
1979-07-14 23:37:08.150 ,4,1,0.,24.0,0.,24.0
1979-07-14 23:37:32.150 ,4,0,0.,24.0,0.,24.0
1979-07-14 23:38:44.150 ,0,0,0.,24.0,0.,24.0
1979-07-14 23:39:08.150 ,0,0,0.,24.0,0.,24.0
1979-07-14 23:39:32.150 ,1,1,0.,24.0,0.,24.0
1979-07-14 23:39:56.150 ,1,0,0.,24.0,0.,24.0
1979-07-14 23:40:20.150 ,0,1,0.,24.0,0.,24.0
1979-07-14 23:40:44.150 ,0,0,0.,24.0,0.,24.0
1979-07-14 23:41:08.150 ,0,1,0.,24.0,0.,24.0
1979-07-14 23:41:32.150 ,0,0,0.,24.0,0.,24.0
1979-07-14 23:41:56.150 ,1,1,0.,24.0,0.,24.0
1979-07-14 23:42:20.150 ,1,0,0.,24.0,0.,24.0
1979-07-14 23:42:44.150 ,2,1,0.,24.0,0.,24.0
1979-07-14 23:43:08.150 ,2,0,0.,24.0,0.,24.0
1979-07-14 23:43:32.150 ,3,1,0.,24.0,0.,24.0
1979-07-14 23:43:56.150 ,3,0,0.,24.0,0.,24.0
1979-07-14 23:44:20.150 ,4,1,0.,24.0,0.,24.0
1979-07-14 23:44:44.150 ,4,0,0.,24.0,0.,24.0
1979-07-14 23:45:08.150 ,5,1,0.,24.0,0.,24.0
1979-07-14 23:45:32.150 ,5,0,0.,24.0,0.,24.0
1979-07-14 23:45:56.150 ,6,1,0.,24.0,0.,24.0
1979-07-14 23:46:20.150 ,6,0,0.,24.0,0.,24.0
1979-07-14 23:46:44.150 ,7,1,0.,24.0,0.,24.0
1979-07-14 23:47:08.150 ,7,0,0.,24.0,0.,24.0
1979-07-14 23:47:32.150 ,7,1,0.,24.0,0.,24.0
1979-07-14 23:47:56.150 ,7,0,0.,24.0,0.,24.0
1979-07-14 23:48:20.150 ,6,1,0.,24.0,0.,24.0
1979-07-14 23:48:44.150 ,6,0,0.,24.0,0.,24.0
1979-07-14 23:49:08.150 ,5,1,0.,24.0,0.,24.0
1979-07-14 23:49:32.150 ,5,0,0.,24.0,0.,24.0
1979-07-14 23:49:56.150 ,4,1,0.,24.0,0.,24.0
1979-07-14 23:50:20.150 ,4,0,0.,24.0,0.,24.0
1979-07-14 23:50:44.150 ,3,1,0.,24.0,0.,24.0
1979-07-14 23:51:08.150 ,3,0,0.,24.0,0.,24.0
1979-07-14 23:51:32.150 ,2,1,0.,24.0,0.,24.0
1979-07-14 23:51:56.150 ,2,0,0.,24.0,0.,24.0
1979-07-14 23:52:20.150 ,1,1,0.,24.0,0.,24.0
1979-07-14 23:52:44.150 ,1,0,0.,24.0,0.,24.0
1979-07-14 23:53:08.150 ,0,1,0.,24.0,0.,24.0
1979-07-14 23:53:32.150 ,0,0,0.,24.0,0.,24.0
1979-07-14 23:53:56.150 ,0,1,0.,24.0,0.,24.0
1979-07-14 23:54:20.150 ,0,0,0.,24.0,0.,24.0
1979-07-14 23:54:44.150 ,1,1,0.,24.0,0.,24.0
1979-07-14 23:55:08.150 ,1,0,0.,24.0,0.,24.0
1979-07-14 23:55:32.150 ,2,1,0.,24.0,0.,24.0
1979-07-14 23:55:56.150 ,2,0,0.,24.0,0.,24.0
1979-07-14 23:56:20.150 ,3,1,0.,24.0,0.,24.0
1979-07-14 23:56:44.150 ,3,0,0.,24.0,0.,24.0
1979-07-14 23:57:08.150 ,4,1,0.,24.0,0.,24.0
1979-07-14 23:57:32.150 ,4,0,0.,24.0,0.,24.0
1979-07-14 23:57:56.150 ,5,1,0.,24.0,0.,24.0
1979-07-14 23:58:20.150 ,5,0,0.,24.0,0.,24.0
1979-07-14 23:58:44.150 ,6,1,0.,24.0,0.,24.0
1979-07-14 23:59:08.150 ,6,0,0.,24.0,0.,24.0
1979-07-14 23:59:32.150 ,7,1,0.,24.0,0.,24.0
1979-07-14 23:59:56.150 ,7,0,0.,24.0,0.,24.0
1979-07-15 00:00:20.150 ,7,1,0.,24.0,0.,24.0
